Regional Weather Roundup
Issued by NWS Sioux Falls, SD

Home | Current Version | Previous Version | Text Only | Print | Product List | Glossary On
Versions: 1 2 3 4 5 6 7 8 9 10 11 12 13 14 15 16 17 18 19 20 21 22 23 24 25 26 27 28 29 30 31 32 33 34 35 36 37 38 39 40 41 42 43 44 45 46 47 48 49 50
000
ASUS43 KFSD 231202
RWRFSD

WEATHER ROUNDUP FOR SE SOUTH DAKOTA/SW MINNESOTA/NW IOWA
NATIONAL WEATHER SERVICE SIOUX FALLS SD
700 AM CDT SAT MAY 23 2015

NOTE: "FAIR" INDICATES FEW OR NO CLOUDS BELOW 12,000 FEET WITH NO
SIGNIFICANT WEATHER AND OR OBSTRUCTIONS TO VISIBILITY.


SDZ038>040-050-052>070-231300-
SOUTHEAST SOUTH DAKOTA

CITY           SKY/WX    TMP DP  RH WIND       PRES   REMARKS
BROOKINGS      CLOUDY    54  46  76 E6        30.22S
CHAMBERLAIN    NOT AVBL
HURON          CLOUDY    54  46  74 SE9G18    30.17F
6HR MIN TEMP:  48; 6HR MAX TEMP:  54; 6HR PCP: TRACE;

MADISON        LGT RAIN  50  50 100 E5        30.21S
MITCHELL       LGT RAIN  53  50  89 E10       30.18S
6HR MIN TEMP:  52; 6HR MAX TEMP:  55; 6HR PCP:  0.01;

SIOUX FALLS    LGT RAIN  54  48  80 S3        30.21R
6HR MIN TEMP:  54; 6HR MAX TEMP:  58; 6HR PCP:  0.01;

WINNER         LGT RAIN  51  48  89 E10       30.11S FOG
YANKTON        CLOUDY    54  48  82 E5        30.17S
$$

MNZ071-072-080-081-089-090-097-098-231300-
SOUTHWEST MINNESOTA

CITY           SKY/WX    TMP DP  RH WIND       PRES   REMARKS
FAIRMONT       CLOUDY    55  45  67 E5        30.24R
JACKSON        CLOUDY    55  52  88 E6        30.24S
LUVERNE        LGT RAIN  55  48  76 CALM      30.23R
MARSHALL       CLOUDY    54  46  76 E3        30.23F
6HR MIN TEMP:  54; 6HR MAX TEMP:  55;

MONTEVIDEO     PTSUNNY   54  48  82 S3        30.25S
REDWOOD FALLS  CLOUDY    53  47  79 E3        30.25S
TRACY          LGT RAIN  55  49  81 E3        30.24S
WINDOM         CLOUDY    55  48  76 CALM      30.24R
WORTHINGTON    CLOUDY    55  46  71 SE6       30.23F
$$

IAZ001>003-012>014-020>022-031-032-NEZ013-014-SDZ071-231300-
NORTHWEST IOWA

CITY           SKY/WX    TMP DP  RH WIND       PRES   REMARKS
DENISON        CLOUDY    54  52  94 SE5       30.21R
ESTHERVILLE    CLOUDY    54  49  83 SE5       30.24R
SIOUX CITY     CLOUDY    56  50  80 SE7       30.20R
6HR MIN TEMP:  55; 6HR MAX TEMP:  57;

SPENCER        CLOUDY    56  49  77 SE7       30.24R
6HR MIN TEMP:  55; 6HR MAX TEMP:  63; 6HR PCP:  0.01;

$$

ABBREVIATIONS USED IN REMARKS
   TC - TEMPERATURE IN CELSIUS
  WCI - WIND CHILL INDEX
   HX - HEAT INDEX
  VSB - VISIBILITY




USA.gov is the U.S. government's official web portal to all federal, state and local government web resources and services.